Weather History for KAIA - February, 2014

Change the Weather History Date:

Wednesday, February 19, 2014

  Actual Average Record
Temperature  
Mean Temperature 39 °F 28 °F  
Max Temperature 56 °F 42 °F 66 °F (1981)
Min Temperature 21 °F 13 °F -16 °F (2006)
Degree Days  
Heating Degree Days 26 37  
Month to date heating degree days 908 740  
Since 1 July heating degree days 5128 5085  
Cooling Degree Days 0 0  
Month to date cooling degree days 0 0  
Year to date cooling degree days 0 0  
Moisture  
Dew Point 27 °F    
Average Humidity 64    
Maximum Humidity 92    
Minimum Humidity 35    
Precipitation  
Precipitation 0.04 in 0.02 in 0.27 in (1953)
Month to date precipitation 0.06 0.26  
Year to date precipitation 0.33 0.44  
Sea Level Pressure  
Sea Level Pressure 29.65 in    
Wind  
Wind Speed 14 mph (NW)    
Max Wind Speed 29 mph    
Max Gust Speed 40 mph    
Visibility 7 miles    
Events Rain , Snow    
T = Trace of Precipitation, MM = Missing Value Source: NWS Daily Summary

Daily Weather History Graph

Daily Weather History Graph

Search for Another Location

Airport or City:

Trip Planner

Search our weather history database for the weather conditions in past years. The results will help you decide how hot, cold, wet, or windy it might be!

Date:

Astronomy

Feb. 19, 2014 Rise Set
Actual Time 6:41 AM MST 5:29 PM MST
Civil Twilight 6:13 AM MST 5:57 PM MST
Nautical Twilight 5:40 AM MST 6:30 PM MST
Astronomical Twilight 5:08 AM MST 7:02 PM MST
Moon 10:30 PM MST (2/19) 8:43 AM MST (2/19)
Length of Visible Light 11h 44m
Length of Day
10h 47m
Waning Gibbous, 79% of the Moon is Illuminated
Feb 19
Waning Gibbous
Feb 22
Last Quarter
Mar 1
New
Mar 8
First Quarter
Mar 16
Full

Hourly Weather History & Observations

Time (MST) Temp. Windchill Dew Point Humidity Pressure Visibility Wind Dir Wind Speed Gust Speed Precip Events Conditions
12:53 AM 28.9 °F 18.6 °F 21.9 °F 75% 29.89 in 10.0 mi SSW 12.7 mph - N/A   Clear
1:53 AM 32.0 °F 22.1 °F 25.0 °F 75% 29.86 in 10.0 mi SSW 13.8 mph - N/A   Clear
2:53 AM 30.0 °F 20.5 °F 24.1 °F 79% 29.83 in 10.0 mi South 11.5 mph - N/A   Clear
3:53 AM 28.9 °F 18.2 °F 23.0 °F 78% 29.80 in 10.0 mi South 13.8 mph - N/A   Clear
4:53 AM 32.0 °F 22.5 °F 24.1 °F 73% 29.78 in 10.0 mi South 12.7 mph - N/A   Clear
5:53 AM 34.0 °F 23.8 °F 25.0 °F 70% 29.75 in 10.0 mi SSW 16.1 mph 24.2 mph N/A   Clear
6:53 AM 34.0 °F 23.4 °F 25.0 °F 70% 29.74 in 10.0 mi SSW 17.3 mph - N/A   Clear
7:53 AM 37.0 °F 27.4 °F 26.1 °F 65% 29.72 in 10.0 mi SSW 17.3 mph - N/A   Clear
8:53 AM 39.9 °F 31.1 °F 27.0 °F 60% 29.68 in 10.0 mi SSW 17.3 mph 24.2 mph N/A   Clear
9:53 AM 42.1 °F 34.2 °F 28.0 °F 58% 29.67 in 10.0 mi SSW 16.1 mph - N/A   Clear
10:53 AM 48.0 °F - 27.0 °F 44% 29.63 in 10.0 mi SSW 16.1 mph - N/A   Partly Cloudy
11:53 AM 48.9 °F - 28.0 °F 44% 29.59 in 10.0 mi SSW 19.6 mph 25.3 mph N/A   Mostly Cloudy
12:53 PM 50.0 °F - 27.0 °F 41% 29.53 in 10.0 mi South 16.1 mph - N/A   Partly Cloudy
1:53 PM 50.0 °F - 27.0 °F 41% 29.50 in 10.0 mi South 17.3 mph - N/A   Clear
2:53 PM 54.0 °F - 27.0 °F 35% 29.47 in 10.0 mi South 13.8 mph - N/A   Partly Cloudy
3:53 PM 51.1 °F - 27.0 °F 39% 29.47 in 10.0 mi South 10.4 mph - N/A   Overcast
4:53 PM 48.0 °F - 28.0 °F 46% 29.45 in 10.0 mi Variable 4.6 mph - N/A   Overcast
5:53 PM 42.1 °F 34.2 °F 34.0 °F 73% 29.57 in 7.0 mi NNW 16.1 mph 24.2 mph 0.03 in Rain Rain
6:14 PM 37.9 °F 27.3 °F 30.0 °F 73% 29.57 in 10.0 mi North 21.9 mph 32.2 mph 0.01 in Rain Light Rain
6:34 PM 34.0 °F 21.8 °F 28.9 °F 82% 29.59 in 2.5 mi NNW 23.0 mph 36.8 mph 0.01 in Snow Light Snow
6:44 PM 33.1 °F 20.1 °F 28.9 °F 85% 29.60 in 3.0 mi North 25.3 mph 34.5 mph 0.01 in Snow Light Snow
6:53 PM 33.1 °F 20.1 °F 28.0 °F 82% 29.65 in 9.0 mi North 25.3 mph 35.7 mph 0.01 in   Overcast
7:00 PM 33.1 °F 19.8 °F 27.0 °F 78% 29.60 in 4.0 mi NNW 26.5 mph 35.7 mph 0.00 in Snow Light Snow
7:04 PM 33.1 °F 19.3 °F 28.0 °F 82% 29.60 in 1.8 mi NNW 28.8 mph 36.8 mph 0.00 in Snow Light Snow
7:07 PM 32.0 °F 18.1 °F 28.0 °F 85% 29.60 in 1.0 mi NNW 27.6 mph 36.8 mph 0.00 in Snow Light Snow
7:12 PM 32.0 °F 19.2 °F 28.0 °F 85% 29.60 in 0.8 mi NNW 23.0 mph 36.8 mph 0.00 in Snow Light Snow
7:27 PM 30.9 °F 18.4 °F 28.0 °F 89% 29.60 in 1.2 mi NNW 20.7 mph 29.9 mph 0.00 in Snow Light Snow
7:32 PM 30.9 °F 19.8 °F 28.9 °F 92% 29.60 in 1.8 mi North 16.1 mph 27.6 mph 0.00 in Snow Light Snow
7:53 PM 30.9 °F 19.8 °F 28.9 °F 92% 29.66 in 1.2 mi NNW 16.1 mph - 0.00 in Snow Light Snow
8:04 PM 30.9 °F 18.4 °F 28.9 °F 92% 29.63 in 1.8 mi North 20.7 mph 27.6 mph 0.00 in Snow Light Snow
8:12 PM 32.0 °F 18.6 °F 28.9 °F 88% 29.63 in 2.5 mi North 25.3 mph 33.4 mph 0.00 in Snow Light Snow
8:22 PM 30.9 °F 17.5 °F 28.9 °F 92% 29.64 in 3.0 mi North 24.2 mph 32.2 mph 0.00 in Snow Light Snow
8:35 PM 30.9 °F 18.4 °F 28.0 °F 89% 29.66 in 2.5 mi North 20.7 mph 33.4 mph 0.00 in Snow Light Snow
8:53 PM 30.0 °F 19.1 °F 28.9 °F 96% 29.73 in 2.5 mi North 15.0 mph - 0.00 in Snow Light Snow
9:00 PM 30.9 °F 18.7 °F 28.0 °F 89% 29.69 in 3.0 mi North 19.6 mph 24.2 mph 0.00 in Snow Light Snow
9:07 PM 30.0 °F 18.7 °F 28.0 °F 92% 29.68 in 2.5 mi North 16.1 mph - 0.00 in Snow Light Snow
9:10 PM 30.0 °F 19.5 °F 28.0 °F 92% 29.68 in 3.0 mi North 13.8 mph - 0.00 in Snow Light Snow
9:53 PM 30.0 °F 20.5 °F 27.0 °F 88% 29.71 in 10.0 mi North 11.5 mph - 0.00 in   Overcast
10:53 PM 28.9 °F 21.9 °F 27.0 °F 92% 29.72 in 10.0 mi North 6.9 mph - N/A   Overcast
11:53 PM 28.0 °F 20.8 °F 26.1 °F 92% 29.71 in 10.0 mi WNW 6.9 mph - N/A   Overcast